Location: Unspecified
(45.8739°N, 0.0000°E)
Time: 03:10:43
(UTC+00:00)

STRAND 1 - Visible Passes

Search period start: 04 April 2026 00:00
Search period end: 14 April 2026 00:00
Orbit: 761 x 775 km, 98.4° (Epoch: 28 March)

Date Brightness Start Highest point End Pass type
(mag) Time Alt. Az. Time Alt. Az. Time Alt. Az.
4 Apr ? 04:36:18 10° SSE 04:41:17 62° ENE 04:46:18 10° N visible
4 Apr ? 20:04:39 10° NW 20:05:09 10° NW 20:05:39 10° WNW visible
5 Apr ? 04:01:07 10° SE 04:05:32 31° ENE 04:09:58 10° N visible
5 Apr ? 19:26:09 10° NNW 19:29:44 20° WNW 19:33:19 10° WSW visible
6 Apr ? 03:26:53 10° E 03:29:59 17° ENE 03:33:05 10° NNE visible
7 Apr ? 04:27:38 10° SE 04:32:32 52° ENE 04:37:27 10° N visible
7 Apr ? 19:54:37 10° NNW 19:56:31 12° NW 19:58:25 10° WNW visible
8 Apr ? 03:52:39 10° ESE 03:56:50 27° ENE 04:01:01 10° N visible
8 Apr ? 19:17:08 10° NNW 19:21:03 23° WNW 19:24:58 10° WSW visible
9 Apr ? 03:18:44 10° E 03:21:19 14° ENE 03:23:53 10° NNE visible
10 Apr ? 04:19:00 10° SE 04:23:47 44° ENE 04:28:35 10° N visible
10 Apr ? 19:45:15 10° NNW 19:47:52 14° WNW 19:50:29 10° W visible
11 Apr ? 03:44:14 10° ESE 03:48:07 23° ENE 03:52:02 10° NNE visible
11 Apr ? 19:08:08 10° N 19:12:20 27° WNW 19:16:32 10° WSW visible
12 Apr ? 03:10:48 10° ENE 03:12:39 12° NE 03:14:31 10° NNE visible
12 Apr ? 04:45:48 10° SSE 04:50:51 76° ENE 04:55:56 10° N visible
13 Apr ? 04:10:25 10° SE 04:15:02 37° ENE 04:19:41 10° N visible
13 Apr ? 19:36:04 10° NNW 19:39:11 17° WNW 19:42:19 10° W visible
